[[{"header":{"parameterUnit":"m.s-1","parameterCategory":2,"la1":30.2991,"la2":30.254,"lo1":-89.0895,"lo2":-89.0444,"dy":0.0017,"dx":0.0017,"nx":28,"ny":28,"refTime":"2024-06-30T21:00:00:Z","depth":"0","parameterNumber":2,"parameterNumberName":"U-component_of_CURRENTS"},"data":[0,0,0,0,0,0,0,0,0,0,0,0,0,0,0,0,0,0,0,0,0,0,0,0,0,0,0,0,0,0,0,0,0,0,0,0,0,0,0,0,0,0,0,0,0,0,0,0,0,0,0,0,0,0,0,0,0,0,0.1622,0.1623,0,0.1672,0.1672,0.1673,0.1673,0.1673,0.1673,0.1672,0.1634,0.1633,0.1633,0,0,0,0,0,0,0,0,0,0,0,0,0,0.1524,0.1525,0.1622,0.1623,0.1624,0.1672,0.1672,0.1673,0.1674,0.1673,0.1673,0.1672,0.1634,0.1633,0.1633,0,0,0,0,0,0,0,0,0,0,0,0,0,0.1567,0.1526,0.1622,0.1632,0.1633,0.1672,0.1672,0.1673,0.1674,0.1673,0.1672,0.1672,0.1634,0.1634,0.1633,0.1639,0,0,0.163,0.1629,0,0,0,0,0,0,0,0,0.1565,0.157,0.163,0.1631,0.1633,0.1668,0.1624,0.1658,0.1674,0.1656,0.1672,0.1672,0.1639,0.1638,0.1647,0.1638,0.1636,0.163,0.1629,0.1629,0.1628,0,0,0,0,0,0,0,0.1562,0.1568,0.164,0.1631,0.1633,0.1632,0.1637,0.163,0.1647,0.1657,0.1658,0.1668,0.1639,0.1648,0.1645,0.1635,0.163,0.1629,0.1628,0.1628,0.1712,0.1715,0,0,0,0,0,0,0.1561,0.1566,0.1638,0.1641,0.1599,0.1635,0.164,0.1655,0.1649,0.1649,0.1668,0.1667,0.1649,0.1647,0.1644,0.1717,0.1629,0.1628,0.1627,0.1709,0.1713,0.1716,0,0,0,0,0,0,0.1559,0.1568,0.1636,0.1606,0.1615,0.1637,0.1654,0.1657,0.167,0.1659,0.1656,0.1679,0.1649,0.1645,0.1682,0.1712,0.1627,0.1627,0.1706,0.171,0.1714,0.182,0,0,0,0,0,0,0.1556,0.1567,0.1581,0.1606,0.1617,0.1674,0.1655,0.1658,0.1678,0.1677,0.1667,0.1663,0.1648,0.1684,0.1681,0.1709,0.1626,0.1702,0.1708,0.1713,0.1813,0.1827,0.1839,0,0,0,0,0,0.1553,0.1579,0.1582,0.1591,0.1635,0.1675,0.1681,0.1692,0.1679,0.1698,0.1711,0.1663,0.1714,0.1686,0.1682,0.171,0.17,0.1706,0.1712,0.1807,0.1824,0.1839,0,0,0,0,0,0,0.1547,0.1583,0.1586,0.1623,0.1652,0.1677,0.1698,0.1698,0.1723,0.172,0.1701,0.17,0.1747,0.172,0.1689,0.1754,0.1697,0.1703,0.177,0.1786,0.18,0.1793,0.1625,0,0,0,0,0,0.1553,0.158,0.1612,0.1642,0.1659,0.1677,0.1694,0.1701,0.1724,0.1733,0.1731,0.1739,0.1769,0.1771,0.1786,0.1814,0.182,0.1831,0.1844,0.1856,0.1851,0.1915,0.1933,0.1736,0.1736,0.1736,0,0,0.1555,0.1582,0.1595,0.1643,0.1664,0.17,0.1686,0.1719,0.1751,0.1724,0.1769,0.1785,0.1792,0.1843,0.1858,0.1821,0.1923,0.1864,0.1873,0.1862,0.1923,0.1942,0.1959,0.1741,0.174,0.1739,0,0,0.1578,0.1603,0.1632,0.1663,0.1704,0.1722,0.1733,0.1764,0.1784,0.1832,0.1837,0.1881,0.1897,0.1927,0.1939,0.2031,0.2,0.2029,0.2076,0.214,0.2156,0.217,0.2233,0.2252,0.2024,0.2025,0.2025,0,0.1576,0.1624,0.1648,0.1689,0.1718,0.1733,0.1771,0.1802,0.1842,0.1873,0.1857,0.1942,0.1941,0.2022,0.2061,0.2058,0.2089,0.2013,0.2157,0.217,0.2183,0.2244,0.2263,0.203,0.203,0.2029,0.2029,0,0.1623,0.1663,0.1688,0.1743,0.1778,0.1816,0.1859,0.1897,0.1915,0.1946,0.2028,0.2055,0.2099,0.2116,0.2114,0.221,0.2204,0.2175,0.2112,0.2209,0.2267,0.2286,0.2039,0.2037,0.2035,0.2033,0,0,0.1604,0.1699,0.1705,0.1742,0.1808,0.184,0.1909,0.1978,0.2029,0.2072,0.2145,0.2211,0.222,0.2237,0.2247,0.2296,0.2425,0.2274,0.2274,0.2329,0.2578,0.2655,0.2681,0.2424,0.2427,0.243,0.2592,0,0.1629,0.1708,0.1752,0.1825,0.1868,0.1916,0.198,0.2044,0.2099,0.2175,0.2223,0.2294,0.2269,0.2302,0.2354,0.2409,0.2473,0.2383,0.248,0.2482,0.2534,0.2705,0.284,0.3004,0.261,0.2613,0.2615,0,0.1654,0.1708,0.1778,0.1875,0.1897,0.1941,0.2043,0.2107,0.2219,0.2264,0.234,0.2377,0.2474,0.2428,0.2568,0.2515,0.2557,0.2588,0.2595,0.2635,0.2594,0.2838,0.3051,0.3051,0.2643,0.264,0.2638,0,0.1624,0.1724,0.1779,0.1811,0.1919,0.1961,0.2022,0.2129,0.2202,0.2325,0.2388,0.249,0.2558,0.2624,0.2697,0.2644,0.2849,0.2778,0.289,0.2894,0.3011,0.3021,0.3227,0.2884,0.2884,0.2883,0.2883,0,0.1633,0.1679,0.1768,0.1801,0.1876,0.1951,0.2044,0.2124,0.2247,0.2351,0.2428,0.2531,0.2611,0.273,0.2762,0.2917,0.291,0.2946,0.2963,0.3056,0.3068,0.3067,0.2957,0.2889,0.2888,0.2887,0.2886,0,0.1596,0.1656,0.1725,0.1829,0.1865,0.1916,0.2053,0.2124,0.2243,0.2382,0.2429,0.2598,0.2771,0.2863,0.3002,0.3028,0.3096,0.3182,0.3292,0.332,0.3398,0.3286,0.3192,0.3075,0.3341,0.3344,0.3347,0,0.1589,0.1616,0.1723,0.1757,0.1804,0.1893,0.196,0.2104,0.2194,0.2428,0.2499,0.2715,0.2883,0.3144,0.3282,0.3429,0.3233,0.3578,0.3494,0.3479,0.3366,0.3057,0.2938,0.3701,0.3706,0.371,0.3714,0,0.1565,0.1594,0.1645,0.1716,0.1782,0.1872,0.1986,0.2065,0.225,0.2397,0.2622,0.2784,0.311,0.3382,0.3593,0.3667,0.3469,0.367,0.3648,0.3679,0.3362,0.3235,0.3491,0.3753,0.3749,0.3746,0.3744,0.3743,0.1533,0.1551,0.1605,0.1676,0.1745,0.1839,0.1917,0.2062,0.2235,0.2478,0.2655,0.2943,0.3391,0.3751,0.3838,0.408,0.3716,0.405,0.3923,0.3615,0.348,0.3822,0.4092,0.409,0.4088,0.4087,0.4086,0,0.1494,0.1519,0.1566,0.165,0.1702,0.1771,0.1924,0.2012,0.2207,0.2493,0.272,0.3262,0.3674,0.4008,0.4433,0.4406,0.4115,0.4266,0.3915,0.3784,0.4187,0.4193,0.4506,0.4506,0.4506,0.4506,0.4506,0.4506,0.1472,0.1493,0.1525,0.159,0.1647,0.1731,0.1818,0.1973,0.2184,0.2561,0.2898,0.3174,0.3765,0.4325,0.4631,0.4568,0.4171,0.4025,0.3751,0.4169,0.4138,0.4109,0.4099,0.4388,0.4388,0.3339,0.3331,0.3326]},{"header":{"parameterUnit":"m.s-1","parameterCategory":2,"la1":30.2991,"la2":30.254,"lo1":-89.0895,"lo2":-89.0444,"dy":0.0017,"dx":0.0017,"nx":28,"ny":28,"refTime":"2024-06-30T21:00:00:Z","depth":"0","parameterNumber":3,"parameterNumberName":"V-component_of_CURRENTS"},"data":[0,0,0,0,0,0,0,0,0,0,0,0,0,0,0,0,0,0,0,0,0,0,0,0,0,0,0,0,0,0,0,0,0,0,0,0,0,0,0,0,0,0,0,0,0,0,0,0,0,0,0,0,0,0,0,0,0,0,-0.0149,-0.015,0,-0.0249,-0.025,-0.0252,-0.0348,-0.0349,-0.035,-0.0351,-0.0515,-0.0518,-0.0521,0,0,0,0,0,0,0,0,0,0,0,0,0,-0.0099,-0.0099,-0.0149,-0.015,-0.0151,-0.0249,-0.025,-0.0252,-0.0348,-0.0349,-0.0351,-0.0352,-0.0513,-0.0517,-0.0521,0,0,0,0,0,0,0,0,0,0,0,0,0,-0.0154,-0.0099,-0.0149,-0.0209,-0.0216,-0.0248,-0.025,-0.0252,-0.0348,-0.0349,-0.0351,-0.0352,-0.0512,-0.0517,-0.0522,-0.0521,0,0,-0.0537,-0.054,0,0,0,0,0,0,0,0,-0.015,-0.0155,-0.0199,-0.0205,-0.0212,-0.0286,-0.0293,-0.0345,-0.0347,-0.03,-0.0351,-0.0353,-0.0442,-0.0452,-0.047,-0.0529,-0.0536,-0.0538,-0.0541,-0.0543,-0.0544,0,0,0,0,0,0,0,-0.0146,-0.0152,-0.019,-0.02,-0.0208,-0.0251,-0.026,-0.0303,-0.0363,-0.0304,-0.0311,-0.0318,-0.0446,-0.0464,-0.0474,-0.0538,-0.0538,-0.0542,-0.0545,-0.0547,-0.0657,-0.0657,0,0,0,0,0,0,-0.0125,-0.0148,-0.0187,-0.0193,-0.0182,-0.025,-0.0261,-0.0262,-0.0361,-0.0377,-0.0317,-0.0322,-0.0455,-0.0468,-0.048,-0.0509,-0.0543,-0.0548,-0.0551,-0.0657,-0.0657,-0.0657,0,0,0,0,0,0,-0.0124,-0.0127,-0.0183,-0.0172,-0.0182,-0.0249,-0.025,-0.0263,-0.0285,-0.037,-0.0388,-0.0324,-0.0457,-0.0473,-0.0522,-0.0515,-0.055,-0.0555,-0.0657,-0.0657,-0.0657,-0.055,0,0,0,0,0,0,-0.0122,-0.0126,-0.0121,-0.017,-0.0182,-0.0192,-0.0249,-0.0264,-0.0286,-0.0294,-0.0382,-0.0399,-0.0459,-0.0514,-0.0527,-0.0523,-0.0558,-0.0657,-0.0657,-0.0657,-0.0554,-0.0547,-0.054,0,0,0,0,0,-0.0119,-0.0104,-0.012,-0.0125,-0.0172,-0.0191,-0.0201,-0.0256,-0.0284,-0.0283,-0.0351,-0.0397,-0.0523,-0.0518,-0.0533,-0.053,-0.0657,-0.0657,-0.0657,-0.0557,-0.0548,-0.0541,0,0,0,0,0,0,-0.0081,-0.0113,-0.0132,-0.0128,-0.0152,-0.0207,-0.0214,-0.0244,-0.0294,-0.0307,-0.0391,-0.0412,-0.0453,-0.0504,-0.0496,-0.0563,-0.0599,-0.0602,-0.0518,-0.051,-0.0504,-0.0483,-0.0563,0,0,0,0,0,-0.0066,-0.0065,-0.01,-0.0096,-0.0105,-0.0155,-0.0171,-0.02,-0.0249,-0.0273,-0.0331,-0.0401,-0.0462,-0.0495,-0.055,-0.0579,-0.0638,-0.059,-0.0583,-0.0577,-0.0571,-0.0669,-0.067,-0.0656,-0.0656,-0.0656,0,0,-0.0049,-0.0068,-0.0067,-0.0088,-0.0116,-0.0116,-0.0169,-0.0181,-0.0186,-0.0282,-0.0309,-0.0373,-0.0463,-0.0503,-0.0526,-0.0546,-0.0606,-0.0576,-0.057,-0.0569,-0.0669,-0.067,-0.0671,-0.0656,-0.0656,-0.0656,0,0,-0.001,-0.0031,-0.0015,-0.0029,-0.0054,-0.0083,-0.0078,-0.0119,-0.0146,-0.017,-0.025,-0.0308,-0.0383,-0.0453,-0.05,-0.0486,-0.0564,-0.0503,-0.0455,-0.0549,-0.0551,-0.0553,-0.06,-0.0608,-0.0503,-0.0503,-0.0503,0,0.0012,0.0024,-0.0012,-0.0001,-0.001,-0.006,-0.0043,-0.0071,-0.0121,-0.0144,-0.0165,-0.0295,-0.0362,-0.0438,-0.0436,-0.047,-0.0523,-0.0475,-0.0539,-0.0543,-0.0547,-0.0596,-0.0606,-0.0498,-0.0498,-0.0499,-0.0499,0,0.0063,0.0069,0.0077,0.0072,0.0062,0.0069,0.0031,0.0017,-0.0016,-0.0054,-0.0116,-0.0208,-0.0294,-0.032,-0.0374,-0.0439,-0.0464,-0.0514,-0.0554,-0.0542,-0.0594,-0.0606,-0.0491,-0.0492,-0.0494,-0.0495,0,0,0.0116,0.0116,0.0117,0.0124,0.0101,0.0099,0.0092,0.0065,0.0049,-0.0001,-0.0035,-0.0132,-0.0188,-0.0244,-0.0323,-0.0396,-0.0459,-0.0457,-0.0464,-0.0492,-0.0638,-0.0656,-0.0671,-0.0528,-0.053,-0.0531,-0.065,0,0.0165,0.0205,0.0187,0.0216,0.0229,0.0183,0.0179,0.0144,0.01,0.0058,-0.0041,-0.0103,-0.0159,-0.0204,-0.0283,-0.0427,-0.0492,-0.042,-0.0656,-0.0662,-0.0672,-0.0687,-0.0634,-0.0737,-0.0662,-0.0665,-0.0666,0,0.0215,0.0233,0.0277,0.0278,0.028,0.0287,0.0256,0.0248,0.0171,0.0134,0.0056,-0.0028,-0.0139,-0.0189,-0.0405,-0.036,-0.0481,-0.0581,-0.059,-0.0655,-0.0704,-0.0746,-0.0763,-0.0865,-0.0686,-0.0684,-0.0683,0,0.0259,0.0289,0.0325,0.0328,0.0327,0.0328,0.0322,0.0267,0.0253,0.0174,0.0146,0.0006,-0.0075,-0.0244,-0.0436,-0.0436,-0.0669,-0.0707,-0.0828,-0.0829,-0.0855,-0.0855,-0.0992,-0.0855,-0.0855,-0.0854,-0.0854,0,0.0305,0.033,0.0349,0.0367,0.0399,0.0379,0.0388,0.036,0.0312,0.0286,0.0186,0.0127,-0.0099,-0.0256,-0.0425,-0.0657,-0.0671,-0.0819,-0.0872,-0.0812,-0.0808,-0.0956,-0.1069,-0.0859,-0.0858,-0.0857,-0.0856,0,0.0334,0.0349,0.039,0.0411,0.0419,0.0438,0.0439,0.0436,0.0395,0.0355,0.0332,0.0192,-0.0011,-0.0223,-0.0507,-0.0647,-0.0953,-0.0939,-0.0824,-0.0862,-0.1066,-0.1176,-0.1427,-0.1521,-0.1094,-0.1095,-0.1096,0,0.035,0.0378,0.0426,0.0446,0.0455,0.0481,0.0491,0.0474,0.0466,0.0387,0.0365,0.019,0.0072,-0.0307,-0.0593,-0.0879,-0.1023,-0.1013,-0.1012,-0.1072,-0.1235,-0.129,-0.1354,-0.0991,-0.0992,-0.0992,-0.0992,0,0.0379,0.0397,0.0432,0.0476,0.0501,0.0537,0.055,0.056,0.0524,0.0498,0.042,0.0333,-0.0003,-0.0258,-0.0619,-0.0831,-0.1105,-0.1026,-0.1141,-0.1213,-0.1235,-0.1349,-0.0886,-0.0993,-0.0993,-0.0993,-0.0993,-0.0993,0.0391,0.0421,0.0461,0.0499,0.0534,0.0572,0.0601,0.0612,0.0617,0.0598,0.0501,0.0451,0.0141,-0.0348,-0.069,-0.1123,-0.118,-0.1203,-0.1341,-0.1394,-0.1466,-0.0982,-0.1123,-0.1124,-0.1124,-0.1125,-0.1125,0,0.0388,0.0427,0.0474,0.052,0.0556,0.0575,0.0622,0.0659,0.0675,0.0704,0.0665,0.0591,0.0176,-0.0269,-0.0843,-0.1265,-0.1456,-0.1496,-0.1548,-0.1611,-0.1208,-0.1179,-0.1275,-0.1275,-0.1275,-0.1275,-0.1274,-0.1274,0.0389,0.0427,0.0457,0.0516,0.0553,0.0608,0.0642,0.0709,0.0769,0.0866,0.0937,0.0978,0.0884,-0.0241,-0.1106,-0.1458,-0.1773,-0.189,-0.2067,-0.1747,-0.1728,-0.1709,-0.1702,-0.1906,-0.1907,-0.2347,-0.2352,-0.2356]}],[{"header":{"parameterUnit":"m.s-1","parameterCategory":2,"la1":30.2991,"la2":30.254,"lo1":-89.0895,"lo2":-89.0444,"dy":0.0017,"dx":0.0017,"nx":28,"ny":28,"refTime":"2024-06-30T21:00:00:Z","depth":"2","parameterNumber":2,"parameterNumberName":"U-component_of_CURRENTS"},"data":[0,0,0,0,0,0,0,0,0,0,0,0,0,0,0,0,0,0,0,0,0,0,0,0,0,0,0,0,0,0,0,0,0,0,0,0,0,0,0,0,0,0,0,0,0,0,0,0,0,0,0,0,0,0,0,0,0,0,0.1936,0.1936,0,0.199,0.1991,0.1991,0.1974,0.1973,0.1971,0.197,0.2001,0.2003,0.2005,0,0,0,0,0,0,0,0,0,0,0,0,0,0.1817,0.1819,0.1936,0.1937,0.1937,0.199,0.1991,0.1991,0.1974,0.1972,0.1971,0.197,0.2001,0.2003,0.2005,0,0,0,0,0,0,0,0,0,0,0,0,0,0.1869,0.182,0.1936,0.1936,0.1936,0.199,0.1991,0.1992,0.1974,0.1972,0.1971,0.1969,0.2,0.2003,0.2005,0.2055,0,0,0.2014,0.2015,0,0,0,0,0,0,0,0,0.1866,0.1873,0.1935,0.1936,0.1936,0.1974,0.196,0.2012,0.1975,0.1959,0.197,0.1969,0.1992,0.1995,0.2008,0.2056,0.2058,0.2014,0.2016,0.2017,0.2018,0,0,0,0,0,0,0,0.1862,0.1871,0.1956,0.1936,0.1937,0.1933,0.1939,0.197,0.1983,0.196,0.1959,0.1967,0.1992,0.2006,0.2009,0.2058,0.2014,0.2016,0.2018,0.2019,0.2179,0.2181,0,0,0,0,0,0,0.186,0.1868,0.1955,0.1958,0.1898,0.1937,0.1943,0.1963,0.1983,0.1985,0.1969,0.1966,0.2002,0.2005,0.201,0.2087,0.2017,0.2019,0.2021,0.2176,0.2179,0.2182,0,0,0,0,0,0,0.1857,0.1868,0.1952,0.1914,0.1924,0.1941,0.1963,0.1965,0.1969,0.199,0.199,0.1969,0.2001,0.2006,0.205,0.2087,0.2021,0.2023,0.2173,0.2177,0.2181,0.223,0,0,0,0,0,0,0.1854,0.1867,0.1881,0.1914,0.1926,0.1988,0.1965,0.1967,0.1977,0.1974,0.1991,0.1993,0.2,0.2046,0.2052,0.209,0.2025,0.217,0.2175,0.2179,0.2225,0.2235,0.2244,0,0,0,0,0,0.185,0.1874,0.1881,0.1892,0.1946,0.199,0.1996,0.2,0.1979,0.1994,0.201,0.1992,0.2081,0.205,0.2057,0.2096,0.2167,0.2173,0.2179,0.2221,0.2233,0.2244,0,0,0,0,0,0,0.1825,0.1876,0.1884,0.1921,0.1955,0.1987,0.2003,0.2001,0.2025,0.2018,0.2023,0.2029,0.2086,0.2089,0.2054,0.216,0.2123,0.213,0.2152,0.2164,0.2173,0.2188,0.2028,0,0,0,0,0,0.183,0.1863,0.1907,0.1937,0.1957,0.1979,0.1994,0.1999,0.2025,0.2031,0.2042,0.2069,0.2121,0.2136,0.2176,0.2227,0.2263,0.226,0.2269,0.2276,0.2296,0.2393,0.2413,0.2201,0.2201,0.2201,0,0,0.1823,0.1861,0.1875,0.1934,0.196,0.2004,0.1984,0.2014,0.2046,0.2034,0.2076,0.2103,0.2145,0.2211,0.2236,0.2211,0.2357,0.2284,0.229,0.2306,0.2402,0.2422,0.2441,0.2205,0.2204,0.2204,0,0,0.1838,0.1869,0.1904,0.1941,0.1989,0.2015,0.2022,0.2056,0.2068,0.2115,0.2129,0.2182,0.2227,0.2282,0.2314,0.2401,0.2408,0.2403,0.2455,0.2549,0.2567,0.2583,0.2655,0.2677,0.2401,0.2401,0.2401,0,0.1826,0.1886,0.1918,0.1968,0.2002,0.2021,0.2064,0.2095,0.2133,0.2173,0.2131,0.2256,0.2273,0.2394,0.2419,0.2423,0.2466,0.2402,0.256,0.2577,0.2593,0.2663,0.2687,0.2404,0.2404,0.2403,0.2403,0,0.1875,0.1921,0.1947,0.2023,0.2063,0.2103,0.2154,0.2191,0.2199,0.2239,0.2334,0.2364,0.2442,0.2456,0.2458,0.2591,0.2583,0.2564,0.2527,0.2618,0.2685,0.271,0.2408,0.2407,0.2406,0.2406,0,0,0.1851,0.1959,0.1966,0.2008,0.2094,0.2128,0.2207,0.2297,0.2355,0.2392,0.2475,0.256,0.2574,0.2613,0.2627,0.2694,0.283,0.2671,0.2674,0.2733,0.3032,0.2998,0.302,0.2834,0.2839,0.2843,0.3033,0,0.1878,0.1963,0.2021,0.2101,0.2148,0.2213,0.2285,0.2369,0.2427,0.2511,0.2577,0.2655,0.2636,0.2662,0.2741,0.2815,0.2897,0.278,0.2944,0.2949,0.2901,0.3049,0.2546,0.2672,0.3057,0.3061,0.3063,0,0.1911,0.1965,0.2038,0.2146,0.2174,0.2224,0.235,0.2418,0.2563,0.2611,0.2717,0.2759,0.2893,0.2826,0.3031,0.2957,0.301,0.3048,0.3056,0.3026,0.2961,0.2646,0.2701,0.3104,0.31,0.3097,0.3095,0,0.187,0.198,0.2034,0.2069,0.2192,0.2241,0.2307,0.2447,0.2517,0.2673,0.2739,0.2898,0.2971,0.3077,0.3164,0.3111,0.3364,0.33,0.3328,0.3325,0.2933,0.2889,0.3454,0.3454,0.3453,0.3453,0.3452,0,0.1886,0.1925,0.2011,0.2042,0.2111,0.2206,0.23,0.2399,0.2539,0.2646,0.2775,0.2872,0.3037,0.3183,0.3236,0.3381,0.3441,0.3387,0.3396,0.2938,0.2894,0.3285,0.3263,0.346,0.3458,0.3457,0.3456,0,0.184,0.19,0.1956,0.2061,0.2092,0.2132,0.2263,0.2341,0.2485,0.2624,0.2673,0.2903,0.3114,0.3268,0.3466,0.3483,0.36,0.3624,0.3077,0.302,0.3476,0.3454,0.3695,0.3696,0.3697,0.3698,0.3698,0,0.1829,0.1852,0.1931,0.1953,0.1996,0.2069,0.2133,0.2287,0.2377,0.2628,0.2694,0.2948,0.3089,0.3391,0.3389,0.351,0.3678,0.3229,0.3052,0.3529,0.3513,0.349,0.3468,0.2537,0.2528,0.2521,0.2515,0,0.1801,0.1815,0.1855,0.1887,0.1936,0.2001,0.21,0.2154,0.2356,0.2481,0.2668,0.2787,0.3001,0.2919,0.3108,0.3107,0.3168,0.3092,0.3739,0.2579,0.2459,0.2437,0.2448,0.2449,0.2456,0.2461,0.2464,0.2467,0.1761,0.1764,0.18,0.1827,0.187,0.1913,0.194,0.2051,0.2159,0.2272,0.247,0.2503,0.2488,0.2502,0.2556,0.2624,0.282,0.2713,0.2725,0.2748,0.2605,0.2496,0.2465,0.2471,0.2476,0.2481,0.2486,0,0.1722,0.1729,0.1746,0.177,0.177,0.1829,0.1911,0.1893,0.1955,0.2029,0.2106,0.1835,0.1772,0.1926,0.1827,0.1928,0.1809,0.1985,0.1723,0.1781,0.1835,0.164,0.1249,0.1248,0.1247,0.1247,0,0,0.1706,0.1699,0.1703,0.1669,0.1677,0.1665,0.1684,0.1648,0.1652,0.1565,0.1505,0.1484,0.1626,0.13,0.1312,0.1302,0.1552,0.1264,0.2194,0.1921,0.1975,0.214,0.1893,0,0,0,0,0]},{"header":{"parameterUnit":"m.s-1","parameterCategory":2,"la1":30.2991,"la2":30.254,"lo1":-89.0895,"lo2":-89.0444,"dy":0.0017,"dx":0.0017,"nx":28,"ny":28,"refTime":"2024-06-30T21:00:00:Z","depth":"2","parameterNumber":3,"parameterNumberName":"V-component_of_CURRENTS"},"data":[0,0,0,0,0,0,0,0,0,0,0,0,0,0,0,0,0,0,0,0,0,0,0,0,0,0,0,0,0,0,0,0,0,0,0,0,0,0,0,0,0,0,0,0,0,0,0,0,0,0,0,0,0,0,0,0,0,0,0.014,0.0139,0,0.0063,0.0062,0.0061,-0.0006,-0.0006,-0.0007,-0.0007,-0.0138,-0.0141,-0.0144,0,0,0,0,0,0,0,0,0,0,0,0,0,0.0186,0.0185,0.014,0.0139,0.0139,0.0064,0.0062,0.0061,-0.0006,-0.0006,-0.0007,-0.0007,-0.0137,-0.0141,-0.0145,0,0,0,0,0,0,0,0,0,0,0,0,0,0.014,0.0185,0.014,0.0099,0.0094,0.0064,0.0062,0.0061,-0.0006,-0.0006,-0.0007,-0.0008,-0.0136,-0.0141,-0.0145,-0.0159,0,0,-0.0159,-0.0161,0,0,0,0,0,0,0,0,0.0143,0.0138,0.0105,0.0101,0.0097,0.004,0.003,-0.0014,-0.0005,0.0029,-0.0007,-0.0008,-0.0081,-0.009,-0.0107,-0.0165,-0.0171,-0.016,-0.0162,-0.0164,-0.0166,0,0,0,0,0,0,0,0.0146,0.0141,0.0106,0.0105,0.0099,0.0069,0.0062,0.0021,-0.0024,0.0026,0.0022,0.0018,-0.0085,-0.0102,-0.011,-0.0172,-0.0159,-0.0163,-0.0166,-0.0168,-0.0276,-0.0276,0,0,0,0,0,0,0.0165,0.0144,0.0109,0.0105,0.0122,0.007,0.0061,0.0057,-0.0023,-0.0034,0.0019,0.0016,-0.0094,-0.0105,-0.0115,-0.0136,-0.0164,-0.0169,-0.0171,-0.0276,-0.0276,-0.0276,0,0,0,0,0,0,0.0166,0.0163,0.0112,0.0125,0.0117,0.007,0.0065,0.0056,0.0032,-0.0027,-0.004,0.0005,-0.0095,-0.0109,-0.0154,-0.0142,-0.0171,-0.0175,-0.0276,-0.0276,-0.0276,-0.0179,0,0,0,0,0,0,0.0168,0.0163,0.0161,0.0127,0.0117,0.0103,0.0066,0.0055,0.0033,0.0027,-0.0043,-0.0056,-0.0097,-0.0147,-0.0159,-0.0149,-0.0178,-0.0276,-0.0276,-0.0276,-0.0182,-0.0176,-0.017,0,0,0,0,0,0.017,0.0181,0.0161,0.0157,0.0117,0.0104,0.0097,0.0058,0.0033,0.0032,-0.0022,-0.0054,-0.0157,-0.0151,-0.0165,-0.0156,-0.0275,-0.0276,-0.0276,-0.0184,-0.0177,-0.017,0,0,0,0,0,0,0.02,0.0174,0.0152,0.0153,0.0132,0.0094,0.009,0.0061,0.0017,0.0006,-0.0056,-0.0072,-0.0105,-0.0149,-0.0141,-0.019,-0.0222,-0.0225,-0.0147,-0.0141,-0.0135,-0.0101,-0.0182,0,0,0,0,0,0.0207,0.0205,0.0176,0.0175,0.0169,0.0127,0.0114,0.0089,0.005,0.0029,-0.0021,-0.0077,-0.0116,-0.0143,-0.0186,-0.0214,-0.0253,-0.0219,-0.0213,-0.0208,-0.0192,-0.0253,-0.0251,-0.0277,-0.0277,-0.0277,0,0,0.0217,0.0204,0.0201,0.0181,0.0159,0.0164,0.0116,0.0105,0.0104,0.0022,-0.0003,-0.0057,-0.012,-0.0147,-0.0167,-0.0183,-0.022,-0.0208,-0.0203,-0.0189,-0.0253,-0.025,-0.0248,-0.0277,-0.0277,-0.0277,0,0,0.0252,0.0228,0.0241,0.023,0.0208,0.0188,0.0188,0.0149,0.0126,0.0097,0.004,-0.0007,-0.0074,-0.0111,-0.0139,-0.013,-0.0185,-0.0149,-0.0094,-0.0154,-0.0151,-0.015,-0.0183,-0.0185,-0.0149,-0.0149,-0.0148,0,0.026,0.0277,0.0243,0.0257,0.0259,0.0206,0.0227,0.0202,0.0149,0.0142,0.0101,0.001,-0.0051,-0.0073,-0.0075,-0.0113,-0.0151,-0.011,-0.0144,-0.0143,-0.0143,-0.0178,-0.0182,-0.0144,-0.0144,-0.0145,-0.0145,0,0.0308,0.0319,0.033,0.0331,0.0327,0.0337,0.0307,0.0293,0.0255,0.0228,0.019,0.0102,0.0049,0.0019,-0.0028,-0.0053,-0.008,-0.0125,-0.0153,-0.0134,-0.0173,-0.0178,-0.0137,-0.0139,-0.014,-0.0141,0,0,0.0334,0.0359,0.0361,0.0384,0.0369,0.0378,0.0382,0.0381,0.0399,0.0323,0.0332,0.0239,0.0183,0.0147,0.0074,0.0019,-0.0022,-0.0049,-0.0054,-0.0065,-0.0137,-0.0094,-0.0096,-0.0078,-0.0079,-0.0079,-0.0158,0,0.0379,0.0437,0.043,0.0482,0.0513,0.0481,0.0499,0.0487,0.0462,0.0456,0.0362,0.033,0.0234,0.0201,0.0134,0.0024,-0.0035,0.0005,-0.0168,-0.0172,-0.0123,-0.0101,-0.0154,-0.0223,-0.0164,-0.0165,-0.0166,0,0.0428,0.0464,0.0528,0.0579,0.0589,0.0606,0.0638,0.0646,0.0625,0.0604,0.0551,0.0472,0.0388,0.0291,0.0118,0.0146,0.0013,-0.0081,-0.0088,-0.0081,-0.0139,-0.0238,-0.0236,-0.0176,-0.0175,-0.0174,-0.0174,0,0.0482,0.0535,0.0596,0.0608,0.0649,0.067,0.0685,0.0689,0.0717,0.0688,0.0703,0.0584,0.0529,0.0352,0.0154,0.0123,-0.0027,-0.0101,-0.0184,-0.0182,-0.0275,-0.0279,-0.0234,-0.0234,-0.0234,-0.0234,-0.0233,0,0.0542,0.0589,0.0625,0.0661,0.0734,0.0733,0.0804,0.0807,0.0827,0.0886,0.0774,0.0796,0.0536,0.0419,0.0211,0.0028,0.0008,-0.0155,-0.0196,-0.0241,-0.024,-0.0245,-0.0245,-0.0237,-0.0236,-0.0235,-0.0235,0,0.0591,0.0615,0.0692,0.0746,0.0764,0.0813,0.0878,0.0937,0.0944,0.1017,0.1005,0.0941,0.0804,0.0562,0.0296,0.0126,-0.0076,-0.0149,-0.0159,-0.0198,-0.021,-0.0205,-0.025,-0.0249,-0.0248,-0.0247,-0.0247,0,0.062,0.0663,0.0752,0.0797,0.082,0.0888,0.0947,0.0983,0.1059,0.1125,0.1179,0.1079,0.1059,0.0729,0.0371,0.0043,-0.0021,-0.0202,-0.0273,-0.0174,-0.0211,-0.0207,-0.0203,-0.0372,-0.0372,-0.0373,-0.0373,0,0.0674,0.0703,0.0772,0.0869,0.0937,0.1035,0.1124,0.1208,0.1275,0.1355,0.1465,0.1456,0.1148,0.0791,0.0352,0.0138,-0.015,-0.0215,-0.0139,-0.0328,-0.0287,-0.0323,-0.0316,-0.0377,-0.0376,-0.0376,-0.0376,-0.0376,0.0703,0.0766,0.0855,0.0947,0.1036,0.118,0.1286,0.1407,0.1561,0.1652,0.164,0.1536,0.1076,0.0468,0.0174,-0.0133,-0.0116,-0.0313,-0.0314,-0.0314,-0.0283,-0.024,-0.0314,-0.0313,-0.0313,-0.0312,-0.0312,0,0.0737,0.0817,0.092,0.1059,0.1177,0.1207,0.1405,0.152,0.1727,0.1681,0.1726,0.12,0.0816,0.0386,-0.0085,-0.0335,-0.0369,-0.041,-0.0467,-0.0462,-0.0457,-0.0435,-0.0506,-0.0507,-0.0508,-0.0508,0,0,0.0762,0.0872,0.0944,0.1147,0.1242,0.1424,0.1548,0.1719,0.173,0.1693,0.1494,0.1209,0.0709,0.0249,-0.0088,-0.0283,-0.0292,-0.0301,-0.0128,-0.015,-0.0143,-0.0394,-0.0351,0,0,0,0,0]}],[{"header":{"parameterUnit":"m.s-1","parameterCategory":2,"la1":30.2991,"la2":30.254,"lo1":-89.0895,"lo2":-89.0444,"dy":0.0017,"dx":0.0017,"nx":28,"ny":28,"refTime":"2024-06-30T21:00:00:Z","depth":"4","parameterNumber":2,"parameterNumberName":"U-component_of_CURRENTS"},"data":[0,0,0,0,0,0,0,0,0,0,0,0,0,0,0,0,0,0,0,0,0,0,0,0,0,0,0,0,0,0,0,0,0,0,0,0,0,0,0,0,0,0,0,0,0,0,0,0,0,0,0,0,0,0,0,0,0,0,0.0619,0.062,0,0.067,0.067,0.067,0.075,0.0752,0.0754,0.0757,0.0853,0.0854,0.0854,0,0,0,0,0,0,0,0,0,0,0,0,0,0.0562,0.0562,0.0619,0.062,0.0622,0.067,0.067,0.067,0.0749,0.0752,0.0755,0.0758,0.0853,0.0853,0.0854,0,0,0,0,0,0,0,0,0,0,0,0,0,0.0587,0.0562,0.0619,0.0675,0.0682,0.067,0.067,0.0669,0.0749,0.0752,0.0756,0.0759,0.0853,0.0853,0.0854,0.0785,0,0,0.0855,0.0856,0,0,0,0,0,0,0,0,0.0586,0.0588,0.0665,0.0671,0.0679,0.0716,0.0686,0.0714,0.0748,0.0712,0.0757,0.0761,0.0816,0.0819,0.0806,0.079,0.0794,0.0856,0.0856,0.0856,0.0856,0,0,0,0,0,0,0,0.0584,0.0586,0.0629,0.0667,0.0675,0.0689,0.0696,0.069,0.0736,0.0716,0.0724,0.0745,0.0819,0.0805,0.0809,0.0795,0.0856,0.0856,0.0856,0.0856,0.0879,0.0879,0,0,0,0,0,0,0.0596,0.0584,0.0627,0.0631,0.0652,0.0688,0.0695,0.0692,0.0735,0.0748,0.0742,0.0749,0.0802,0.0808,0.0813,0.0878,0.0856,0.0857,0.0857,0.0879,0.0879,0.0879,0,0,0,0,0,0,0.0594,0.0598,0.0625,0.0619,0.0625,0.0687,0.0682,0.0691,0.0733,0.0757,0.0769,0.0783,0.0805,0.0812,0.0867,0.0877,0.0857,0.0857,0.0878,0.0879,0.0879,0.0916,0,0,0,0,0,0,0.0591,0.0596,0.0613,0.0619,0.0626,0.0657,0.068,0.069,0.0743,0.0753,0.0794,0.0804,0.0809,0.0866,0.0867,0.0878,0.0858,0.0878,0.0878,0.0879,0.0914,0.0918,0.092,0,0,0,0,0,0.0588,0.0609,0.0612,0.062,0.0641,0.0659,0.0664,0.0712,0.0742,0.0761,0.0802,0.0805,0.087,0.0867,0.0868,0.0879,0.0878,0.0878,0.0879,0.0913,0.0917,0.092,0,0,0,0,0,0,0.0602,0.0619,0.0624,0.0651,0.0669,0.0678,0.0709,0.0731,0.0771,0.0798,0.0814,0.0826,0.0872,0.0868,0.0864,0.0885,0.087,0.0871,0.0896,0.0899,0.0902,0.0914,0.0858,0,0,0,0,0,0.0606,0.0626,0.0636,0.0662,0.0668,0.0687,0.0708,0.0739,0.077,0.0793,0.084,0.0864,0.0858,0.0881,0.0889,0.0902,0.0896,0.0907,0.091,0.0913,0.0923,0.0904,0.0906,0.0881,0.0881,0.0881,0,0,0.0614,0.0636,0.0644,0.0668,0.0678,0.0691,0.0708,0.0752,0.0785,0.0794,0.088,0.0885,0.0866,0.0888,0.0907,0.0899,0.092,0.0913,0.0916,0.0925,0.0905,0.0907,0.0909,0.0882,0.0882,0.0882,0,0,0.0638,0.0656,0.0671,0.069,0.073,0.0733,0.0756,0.0797,0.0839,0.0897,0.0901,0.0926,0.0957,0.0939,0.0923,0.0943,0.0936,0.0945,0.0973,0.0955,0.0957,0.0958,0.0973,0.0975,0.0947,0.0947,0.0947,0,0.0653,0.0671,0.0682,0.0706,0.0736,0.0755,0.0779,0.0801,0.0875,0.0908,0.0947,0.0972,0.0971,0.0944,0.0957,0.095,0.0953,0.0961,0.0959,0.096,0.0961,0.0975,0.0978,0.0949,0.0949,0.0949,0.0948,0,0.0665,0.0703,0.0718,0.0744,0.0771,0.0804,0.083,0.0882,0.094,0.0971,0.1019,0.1016,0.1033,0.1018,0.0997,0.0988,0.0994,0.0965,0.0952,0.0966,0.098,0.0982,0.0952,0.0951,0.095,0.095,0,0,0.0652,0.0711,0.0731,0.0759,0.0804,0.0828,0.0873,0.0912,0.0954,0.1023,0.1071,0.1059,0.1081,0.1063,0.1034,0.1015,0.1028,0.1004,0.1003,0.1023,0.102,0.0973,0.0971,0.1,0.1,0.1,0.1034,0,0.0664,0.0722,0.0755,0.0819,0.0834,0.0877,0.0918,0.0967,0.1015,0.1074,0.1065,0.1101,0.1085,0.1097,0.1077,0.1036,0.1032,0.1024,0.0999,0.0999,0.0958,0.097,0.1,0.1035,0.1035,0.1035,0.1036,0,0.0665,0.071,0.0776,0.0857,0.0871,0.093,0.1002,0.1039,0.1086,0.1129,0.1153,0.116,0.1151,0.1132,0.1097,0.1099,0.1076,0.1042,0.1042,0.0986,0.0955,0.1011,0.1038,0.1038,0.1038,0.1038,0.1038,0,0.0643,0.0732,0.0798,0.0827,0.0906,0.0976,0.1025,0.1081,0.1109,0.117,0.1197,0.1201,0.1213,0.1177,0.1124,0.1126,0.1073,0.1062,0.1002,0.1,0.1016,0.1014,0.104,0.104,0.104,0.104,0.104,0,0.0635,0.069,0.0817,0.0854,0.0946,0.1005,0.1087,0.1136,0.1181,0.1191,0.1238,0.1206,0.1225,0.119,0.1143,0.1077,0.1095,0.1017,0.0998,0.1034,0.1033,0.1019,0.1016,0.1041,0.1041,0.1041,0.104,0,0.059,0.067,0.0752,0.0888,0.094,0.1016,0.1121,0.1145,0.1213,0.1219,0.124,0.124,0.1198,0.119,0.1129,0.1103,0.1034,0.1,0.1063,0.1046,0.0984,0.0983,0.0978,0.0976,0.0975,0.0974,0.0973,0,0.0569,0.0609,0.0777,0.084,0.0924,0.103,0.1075,0.1158,0.1159,0.1182,0.1157,0.1164,0.1148,0.1042,0.1031,0.0998,0.0968,0.0987,0.0977,0.0992,0.0975,0.0976,0.0976,0.0971,0.097,0.097,0.097,0,0.0523,0.0609,0.0675,0.08,0.0901,0.0956,0.1033,0.1014,0.1062,0.1146,0.1067,0.1051,0.1009,0.0971,0.0976,0.0919,0.1008,0.0974,0.0977,0.0967,0.0984,0.0968,0.097,0.0965,0.0966,0.0966,0.0967,0,0.0496,0.0538,0.0646,0.0738,0.0853,0.0865,0.0896,0.0899,0.0916,0.0966,0.091,0.0906,0.0952,0.0922,0.0871,0.088,0.0883,0.0895,0.0902,0.0908,0.0869,0.0878,0.0817,0,0,0,0,0,0.0466,0.049,0.0565,0.0651,0.0748,0.08,0.0857,0.0863,0.0907,0.0846,0.0893,0.0839,0.0823,0.0794,0.079,0.083,0.0873,0.0826,0.0887,0.0941,0.0946,0.0906,0,0,0,0,0,0,0.0444,0.051,0.053,0.0566,0.0589,0.0653,0.0676,0.0683,0.0653,0.0721,0.0693,0.0823,0.0783,0.0809,0.0774,0.0784,0.082,0.0864,0.0863,0.0938,0.0943,0.0947,0.0908,0,0,0,0,0]},{"header":{"parameterUnit":"m.s-1","parameterCategory":2,"la1":30.2991,"la2":30.254,"lo1":-89.0895,"lo2":-89.0444,"dy":0.0017,"dx":0.0017,"nx":28,"ny":28,"refTime":"2024-06-30T21:00:00:Z","depth":"4","parameterNumber":3,"parameterNumberName":"V-component_of_CURRENTS"},"data":[0,0,0,0,0,0,0,0,0,0,0,0,0,0,0,0,0,0,0,0,0,0,0,0,0,0,0,0,0,0,0,0,0,0,0,0,0,0,0,0,0,0,0,0,0,0,0,0,0,0,0,0,0,0,0,0,0,0,-0.0186,-0.0187,0,-0.0246,-0.0246,-0.0247,-0.0306,-0.0307,-0.0308,-0.0309,-0.048,-0.0483,-0.0487,0,0,0,0,0,0,0,0,0,0,0,0,0,-0.0162,-0.0161,-0.0186,-0.0187,-0.0188,-0.0246,-0.0246,-0.0247,-0.0305,-0.0307,-0.0308,-0.0309,-0.0479,-0.0483,-0.0487,0,0,0,0,0,0,0,0,0,0,0,0,0,-0.0188,-0.0161,-0.0186,-0.0227,-0.0232,-0.0246,-0.0246,-0.0247,-0.0305,-0.0307,-0.0308,-0.031,-0.0477,-0.0483,-0.0488,-0.0487,0,0,-0.0504,-0.0506,0,0,0,0,0,0,0,0,-0.0187,-0.0189,-0.022,-0.0225,-0.023,-0.0273,-0.0301,-0.0334,-0.0305,-0.0273,-0.0309,-0.0311,-0.0422,-0.0432,-0.0433,-0.0495,-0.0502,-0.0504,-0.0508,-0.051,-0.0511,0,0,0,0,0,0,0,-0.0185,-0.0187,-0.0206,-0.0221,-0.0227,-0.0256,-0.0261,-0.0307,-0.0337,-0.0276,-0.0282,-0.0293,-0.0426,-0.0427,-0.0438,-0.0505,-0.0504,-0.0509,-0.0512,-0.0514,-0.0709,-0.0711,0,0,0,0,0,0,-0.0181,-0.0184,-0.0204,-0.0208,-0.0216,-0.0255,-0.0261,-0.0255,-0.0334,-0.0348,-0.0292,-0.0296,-0.0418,-0.0432,-0.0444,-0.0551,-0.051,-0.0515,-0.0518,-0.0707,-0.0709,-0.0712,0,0,0,0,0,0,-0.0179,-0.0181,-0.0202,-0.0202,-0.0207,-0.0254,-0.0247,-0.0255,-0.0286,-0.0346,-0.0361,-0.0319,-0.042,-0.0437,-0.0532,-0.0555,-0.0517,-0.0522,-0.0705,-0.0708,-0.071,-0.0699,0,0,0,0,0,0,-0.0178,-0.0179,-0.0188,-0.0201,-0.0207,-0.0233,-0.0246,-0.0255,-0.0291,-0.0297,-0.0373,-0.0389,-0.0422,-0.0524,-0.0537,-0.0561,-0.0526,-0.0702,-0.0706,-0.071,-0.0697,-0.0702,-0.0706,0,0,0,0,0,-0.0176,-0.0186,-0.0187,-0.0191,-0.0212,-0.0234,-0.024,-0.0276,-0.0291,-0.0309,-0.0377,-0.0388,-0.0557,-0.053,-0.0545,-0.0571,-0.07,-0.0705,-0.0709,-0.0695,-0.0701,-0.0705,0,0,0,0,0,0,-0.0188,-0.0193,-0.0195,-0.0207,-0.0227,-0.0246,-0.0269,-0.0286,-0.0346,-0.0368,-0.0416,-0.0438,-0.053,-0.0557,-0.0526,-0.0641,-0.0629,-0.0637,-0.0613,-0.0619,-0.0623,-0.0596,-0.0531,0,0,0,0,0,-0.0188,-0.0195,-0.0204,-0.0219,-0.0224,-0.0245,-0.0264,-0.0288,-0.0335,-0.0362,-0.0432,-0.05,-0.0552,-0.0592,-0.0654,-0.0713,-0.0708,-0.0742,-0.0746,-0.0749,-0.074,-0.075,-0.0753,-0.0726,-0.0726,-0.0726,0,0,-0.0197,-0.0204,-0.0209,-0.0222,-0.0235,-0.0247,-0.026,-0.0296,-0.0327,-0.0374,-0.0469,-0.0526,-0.0575,-0.0651,-0.0692,-0.068,-0.0757,-0.0754,-0.0756,-0.0746,-0.0755,-0.0757,-0.0758,-0.0729,-0.0729,-0.0728,0,0,-0.0212,-0.0218,-0.0223,-0.0239,-0.0268,-0.0275,-0.0288,-0.0333,-0.0375,-0.046,-0.0499,-0.0573,-0.0674,-0.0706,-0.0728,-0.0791,-0.0783,-0.0817,-0.081,-0.082,-0.0821,-0.0822,-0.0818,-0.0818,-0.0812,-0.0812,-0.0812,0,-0.0224,-0.0228,-0.0234,-0.0246,-0.0266,-0.0285,-0.0301,-0.0333,-0.0422,-0.0465,-0.0503,-0.0645,-0.0693,-0.0741,-0.0764,-0.0797,-0.0795,-0.078,-0.082,-0.0821,-0.0822,-0.0818,-0.0819,-0.0813,-0.0813,-0.0813,-0.0813,0,-0.0233,-0.0249,-0.0257,-0.0267,-0.0289,-0.0313,-0.0345,-0.0396,-0.0455,-0.0502,-0.0608,-0.0679,-0.0749,-0.078,-0.079,-0.0822,-0.0816,-0.0824,-0.0794,-0.0823,-0.0818,-0.0819,-0.0813,-0.0813,-0.0813,-0.0813,0,0,-0.0227,-0.0253,-0.0264,-0.0274,-0.0306,-0.0323,-0.0369,-0.0415,-0.045,-0.0561,-0.0619,-0.0713,-0.0752,-0.0778,-0.0806,-0.0819,-0.0824,-0.0819,-0.0819,-0.079,-0.0833,-0.0776,-0.0771,-0.0833,-0.0833,-0.0833,-0.0825,0,-0.0233,-0.0252,-0.0275,-0.0308,-0.0311,-0.035,-0.0388,-0.0444,-0.0504,-0.0574,-0.0645,-0.071,-0.0745,-0.077,-0.0795,-0.082,-0.0826,-0.0825,-0.0831,-0.0831,-0.0756,-0.077,-0.0834,-0.0826,-0.0826,-0.0826,-0.0826,0,-0.0235,-0.0245,-0.0275,-0.0317,-0.0325,-0.0362,-0.0415,-0.0453,-0.0528,-0.0576,-0.0642,-0.0691,-0.0733,-0.0754,-0.0802,-0.0798,-0.081,-0.0829,-0.0829,-0.0776,-0.0775,-0.0796,-0.0827,-0.0827,-0.0827,-0.0827,-0.0827,0,-0.0213,-0.0253,-0.0278,-0.0294,-0.0338,-0.0381,-0.0411,-0.0475,-0.0491,-0.0562,-0.0571,-0.0659,-0.0674,-0.0726,-0.0752,-0.0778,-0.0786,-0.0828,-0.079,-0.0786,-0.0841,-0.084,-0.0847,-0.0847,-0.0847,-0.0847,-0.0847,0,-0.0205,-0.023,-0.0281,-0.0295,-0.0332,-0.0378,-0.0417,-0.0456,-0.0491,-0.0484,-0.0562,-0.0552,-0.0662,-0.0677,-0.0732,-0.0743,-0.0765,-0.078,-0.0778,-0.084,-0.0839,-0.0841,-0.084,-0.0846,-0.0846,-0.0846,-0.0846,0,-0.0186,-0.0216,-0.0245,-0.0304,-0.0322,-0.0357,-0.0388,-0.0397,-0.043,-0.0409,-0.0412,-0.0462,-0.0491,-0.0575,-0.0641,-0.0682,-0.072,-0.071,-0.0741,-0.0742,-0.0728,-0.0728,-0.0704,-0.0702,-0.07,-0.0699,-0.0697,0,-0.0178,-0.0189,-0.024,-0.025,-0.0288,-0.0323,-0.0329,-0.0367,-0.0342,-0.0331,-0.03,-0.0331,-0.0366,-0.0419,-0.0526,-0.0627,-0.0638,-0.0651,-0.0731,-0.0712,-0.0713,-0.0715,-0.0717,-0.0695,-0.0694,-0.0694,-0.0693,0,-0.016,-0.0191,-0.0206,-0.0205,-0.0231,-0.0234,-0.0239,-0.0208,-0.021,-0.0222,-0.0181,-0.0234,-0.0264,-0.0377,-0.0431,-0.0509,-0.0654,-0.0634,-0.064,-0.0716,-0.07,-0.0704,-0.0708,-0.0687,-0.0688,-0.0688,-0.0689,0,-0.0148,-0.0158,-0.0166,-0.0166,-0.0165,-0.0149,-0.0167,-0.0132,-0.0117,-0.0098,-0.0075,-0.0147,-0.0199,-0.0309,-0.0359,-0.0434,-0.049,-0.0526,-0.0539,-0.0548,-0.0514,-0.0473,-0.0377,0,0,0,0,0,-0.0127,-0.012,-0.0116,-0.0122,-0.0104,-0.012,-0.0089,-0.0097,-0.0077,-0.0031,-0.0054,-0.0081,-0.0185,-0.0241,-0.0308,-0.036,-0.0515,-0.0441,-0.0566,-0.0652,-0.066,-0.0643,0,0,0,0,0,0,-0.0115,-0.0104,-0.0103,-0.0058,-0.0059,-0.0054,-0.0049,-0.0052,-0.0022,-0.0013,-0.0072,-0.0094,-0.0208,-0.0154,-0.0313,-0.0337,-0.0422,-0.0497,-0.0498,-0.0648,-0.0655,-0.0661,-0.0646,0,0,0,0,0]}]]